Theta_e
295 295 295 295 297 297 298 299 300 301 302 302 303 303 302 302 303 299 294 297 290 286 288 291 290 286 287 286 282 286 285 286 287 283 280 278 276 282 283 287 285 283 280 279 281 278 276 294 294 287 290 294 294 294
294 295 294 296 297 298 298 299 300 301 301 302 302 303 303 302 302 300 293 297 297 290 289 292 292 293 293 292 289 292 288 289 288 283 282 281 278 281 285 280 289 283 286 282 284 283 294 294 292 295 294 292 291 292
294 294 294 296 297 298 299 300 300 301 301 302 302 303 303 302 302 300 295 296 293 289 288 288 287 293 296 295 298 286 290 292 291 292 287 284 279 285 281 283 286 291 294 287 288 292 292 293 294 294 294 292 292 291
294 294 294 296 297 298 299 300 300 300 301 302 302 302 302 302 302 300 294 297 294 290 283 282 293 290 295 295 298 297 293 297 296 294 287 282 281 289 285 289 287 289 290 288 289 289 290 289 290 291 291 292 291 289
293 294 296 297 298 298 299 300 300 301 301 302 302 302 303 303 302 299 296 297 297 290 281 284 291 294 296 294 294 297 296 294 292 289 281 282 287 287 287 289 284 289 286 283 281 286 289 287 289 291 289 289 288 288
293 294 296 297 298 299 300 300 300 300 301 301 302 302 303 302 301 296 288 296 298 295 288 278 290 291 293 294 295 295 295 294 294 288 284 288 293 289 285 282 285 286 287 288 284 287 288 289 288 288 288 286 285 283
293 295 297 298 299 299 300 300 300 300 300 301 301 302 302 302 297 290 288 293 299 297 288 282 281 290 294 294 292 292 293 290 292 290 287 289 290 291 285 279 282 284 286 286 286 288 287 287 283 285 286 286 285 282
294 296 297 298 299 299 299 299 299 300 301 301 302 302 302 302 298 293 297 300 299 293 291 282 283 287 295 288 289 295 291 291 292 289 291 289 291 288 277 281 282 283 285 283 283 285 285 286 285 283 284 284 281 279
295 296 298 298 299 300 299 300 301 302 302 302 302 302 297 291 289 293 301 300 299 293 283 283 279 281 292 290 292 291 292 284 289 286 287 289 281 275 279 279 279 280 279 279 282 282 282 282 283 282 281 280 278 278
295 297 297 297 297 298 299 301 301 302 302 301 296 289 285 292 300 300 292 287 288 291 291 284 288 283 289 288 287 287 287 285 282 286 289 280 276 279 280 279 279 279 279 279 278 277 278 278 279 277 277 277 277 276
297 297 296 297 297 298 299 300 301 300 300 295 289 287 296 300 293 287 283 284 285 282 283 284 287 285 290 284 285 285 284 285 280 282 284 277 275 277 278 277 278 278 278 277 276 276 276 277 277 276 275 275 275 275
296 296 296 297 298 297 298 299 300 298 295 294 294 296 295 290 286 283 281 283 279 279 284 280 285 288 288 289 286 286 280 283 275 286 279 269 274 277 277 276 276 276 276 275 275 273 273 275 275 275 274 274 273 273
295 295 296 297 297 299 300 300 299 299 299 295 290 286 285 282 278 273 277 280 280 282 285 286 285 284 286 287 285 285 280 278 285 275 270 271 275 276 275 275 275 275 275 274 273 273 272 271 271 270 269 269 268 267
295 295 296 296 298 299 300 299 299 297 292 285 279 269 272 273 271 273 276 276 279 281 283 285 284 284 285 283 283 280 281 282 276 269 264 271 273 274 275 275 273 272 272 270 268 268 268 268 267 268 267 267 266 266
295 294 294 294 296 296 296 295 294 288 283 278 278 270 271 274 275 276 279 279 281 283 283 285 285 285 280 274 279 280 274 269 269 264 268 272 273 273 273 273 272 271 266 266 264 265 264 264 266 266 267 267 267 266
296 294 289 293 294 296 295 293 290 287 281 278 276 275 276 272 271 272 274 274 281 281 282 283 276 273 271 271 270 266 270 264 264 267 271 272 269 269 270 272 269 267 266 266 266 267 266 265 265 266 267 267 267 266
297 288 293 294 296 296 295 288 285 282 279 276 272 276 276 274 272 272 274 276 280 280 277 279 272 272 277 269 267 270 264 266 270 271 270 269 270 270 269 269 269 269 268 267 267 267 268 269 268 268 266 267 267 267
289 289 294 293 294 292 289 286 281 279 275 275 272 275 274 275 272 275 277 278 280 279 278 275 277 270 265 266 264 267 269 272 272 271 270 270 269 267 270 267 267 268 267 266 266 265 266 266 266 265 266 266 267 267
290 291 293 295 292 287 283 282 282 275 275 277 276 277 277 275 276 276 277 278 279 279 278 274 270 268 268 271 269 268 266 267 270 269 269 269 271 272 272 272 272 271 271 269 270 270 270 270 269 270 269 268 266 266
294 294 294 295 293 284 281 280 283 278 274 276 277 275 276 275 275 274 275 276 275 274 269 267 267 268 270 271 271 271 268 272 272 269 268 270 270 270 268 270 270 271 272 272 271 271 271 270 270 271 270 270 267 266
292 290 293 290 286 284 281 279 278 279 278 277 278 278 273 274 272 271 272 274 270 269 267 268 268 270 271 271 271 273 271 272 268 268 267 270 271 273 274 273 272 272 270 269 269 270 270 269 269 269 267 264 264 266
288 294 286 287 282 282 280 281 279 279 279 279 279 279 271 267 268 270 273 268 268 267 267 266 263 264 271 269 266 267 272 274 273 273 273 272 270 269 270 270 271 269 269 268 270 268 269 269 268 267 264 260 264 265
290 288 283 281 276 274 276 283 278 279 273 275 277 273 270 267 271 275 265 270 269 268 266 266 265 267 269 266 271 270 269 271 270 271 271 270 271 270 270 270 270 269 268 269 270 268 267 268 267 265 263 262 262 259
285 278 274 272 274 268 273 272 279 278 275 273 271 267 268 269 272 265 264 264 266 271 270 267 270 269 270 270 268 269 269 270 270 269 268 269 268 268 270 269 269 269 270 270 269 266 265 262 265 264 260 258 257 259
272 269 270 266 271 268 266 266 269 271 266 268 265 264 266 272 263 260 260 268 267 265 270 275 274 270 265 261 264 266 270 270 267 266 266 268 265 266 266 266 266 267 268 263 258 257 255 255 256 259 259 260 263 261
263 264 267 266 267 270 270 266 265 265 264 261 262 269 267 261 258 261 266 263 261 267 263 264 268 268 268 268 265 265 265 268 269 265 265 267 266 263 261 260 259 261 265 260 256 254 254 253 253 255 254 255 255 253
261 262 271 277 276 275 268 268 271 266 261 261 262 260 259 254 254 264 270 268 267 265 267 268 270 268 267 267 267 266 266 266 266 266 266 266 265 264 263 260 259 261 261 259 258 257 255 252 251 252 251 249 251 252
267 269 263 264 265 269 260 260 258 258 260 268 265 257 256 258 262 267 266 268 268 270 269 269 270 269 268 266 265 262 261 261 263 264 264 263 261 257 257 256 257 261 254 253 256 260 255 252 252 256 256 255 253 250
262 267 266 259 261 262 262 259 259 264 268 265 257 257 261 267 265 267 267 268 268 268 266 265 259 262 263 262 259 259 255 256 261 257 255 254 252 256 254 253 254 256 254 254 260 255 258 257 256 255 254 254 252 250
264 267 260 256 258 260 264 262 258 258 266 265 268 269 268 267 268 263 267 266 265 262 260 261 260 260 257 257 252 254 252 249 251 255 254 252 256 257 254 253 252 252 253 254 253 254 259 254 255 252 252 252 252 252
269 263 259 259 261 264 263 262 265 263 259 260 257 260 260 264 266 267 264 265 264 262 262 260 258 253 260 257 251 250 252 252 250 253 256 255 252 251 251 251 250 250 250 251 252 251 250 249 250 253 255 255 253 250
260 256 258 260 263 267 264 262 258 259 255 256 256 254 257 256 256 260 263 260 259 258 257 258 259 255 252 250 250 250 254 252 250 252 253 251 249 249 251 252 250 249 249 250 250 250 249 248 247 248 249 249 247 246
258 257 258 259 259 259 260 260 260 260 258 259 262 260 257 256 256 260 263 259 263 261 262 258 256 257 256 256 255 251 251 250 250 258 254 253 252 252 248 247 247 248 251 249 249 248 249 249 247 247 246 246 244 244
Wind_Speed
20 21 18 21 21 22 22 21 21 19 17 17 17 14 17 17 17 9 3 10 6 3 7 4 11 8 0 2 2 4 4 3 2 2 2 3 2 4 3 2 3 4 5 3 3 3 7 7 0 4 4 3 4 7
20 19 18 22 21 21 22 21 22 19 17 16 16 14 18 18 17 14 3 8 8 3 3 2 6 10 6 3 1 1 3 0 2 0 2 2 2 3 2 3 3 3 3 4 5 3 5 8 10 6 5 4 4 4
20 17 21 22 22 21 22 22 22 19 17 17 17 16 18 19 18 18 4 6 4 2 4 7 9 15 11 12 9 4 1 4 3 3 2 2 1 1 1 2 1 1 5 2 2 7 11 9 9 9 8 6 7 7
19 20 22 22 23 23 24 24 21 19 19 18 15 15 19 20 20 19 5 6 3 2 3 7 5 5 9 13 15 7 8 5 1 4 3 1 1 0 2 2 2 4 5 5 6 6 10 9 9 7 9 8 10 10
20 22 21 23 23 24 24 23 21 19 18 18 16 15 19 21 21 12 5 6 7 3 2 4 7 12 7 12 17 15 12 9 2 1 1 2 2 1 1 2 3 6 4 2 3 7 4 7 7 10 11 11 11 10
21 22 22 23 25 24 23 18 17 18 18 21 19 17 19 22 22 6 3 5 8 3 2 4 4 4 2 9 13 13 8 3 1 2 3 3 3 2 1 3 3 8 9 9 3 3 9 8 12 11 11 12 12 12
21 22 22 24 22 20 20 21 23 22 20 20 22 20 19 24 14 6 5 4 18 6 2 4 5 4 4 5 3 3 4 2 3 2 2 2 1 3 1 2 4 7 7 8 11 6 7 11 7 10 10 11 12 11
21 22 24 19 19 19 20 24 28 26 21 23 24 23 21 26 15 4 2 9 15 4 3 3 4 4 1 3 3 2 4 3 2 3 2 3 2 2 3 6 7 8 6 11 10 11 9 8 10 10 8 7 8 9
20 22 18 16 14 13 18 21 16 12 22 25 25 23 7 4 4 3 3 20 2 3 4 3 2 2 5 2 2 2 3 2 0 4 3 3 3 4 4 7 7 8 5 6 5 8 9 10 9 9 9 7 7 8
21 15 10 10 8 10 13 12 17 21 25 28 9 4 4 5 30 14 4 2 1 2 2 2 2 2 2 3 2 3 1 2 3 3 3 3 3 7 8 8 8 7 8 7 3 5 7 7 7 8 8 7 8 7
14 7 8 10 8 7 8 11 12 15 11 3 3 3 10 14 5 1 3 3 3 3 3 4 4 1 2 1 3 1 3 2 3 3 2 3 3 4 8 9 8 8 8 9 7 6 6 6 5 6 7 8 7 7
4 6 9 7 5 6 6 4 12 5 2 6 7 5 3 3 3 4 3 4 4 5 1 3 2 3 1 2 1 3 3 3 3 4 4 3 3 8 8 8 7 7 7 8 8 7 7 7 7 7 7 7 8 9
1 3 1 3 2 14 7 2 9 19 8 4 6 4 2 3 5 4 6 2 3 2 2 0 3 3 2 3 0 1 3 2 1 4 3 2 7 7 6 6 7 7 8 8 8 8 9 9 9 8 7 6 8 9
4 6 8 10 17 16 11 18 9 4 5 4 4 7 4 3 3 1 1 2 1 2 3 2 2 2 0 2 1 2 1 2 3 3 2 2 6 7 6 6 7 7 6 7 6 6 7 7 7 7 7 5 7 8
6 6 8 10 9 11 11 11 9 5 5 5 5 5 4 1 3 2 2 2 3 2 2 2 3 2 3 4 3 2 4 4 3 2 2 4 5 5 5 7 6 6 4 5 3 5 5 5 7 8 7 7 8 8
7 5 3 3 4 10 10 7 5 4 5 5 7 4 3 5 4 4 3 3 3 3 1 1 3 4 3 3 5 3 2 1 1 2 3 4 3 4 5 6 5 4 5 5 5 5 6 6 7 7 8 8 8 7
6 2 4 4 9 12 7 4 4 8 5 5 3 3 3 3 1 2 2 2 2 1 2 3 5 2 2 4 4 4 2 2 4 4 3 3 4 5 5 5 5 6 5 5 6 6 6 4 4 7 8 6 7 7
3 2 5 5 4 4 3 5 5 6 7 4 4 3 3 4 2 3 4 4 2 2 3 4 3 6 4 3 1 1 3 5 5 4 3 4 4 4 4 5 5 5 5 4 5 3 5 6 6 4 4 4 6 6
5 4 4 6 4 5 5 5 5 6 4 2 1 1 4 3 4 4 6 5 5 5 4 4 5 3 2 3 4 3 1 2 4 2 2 2 4 5 5 4 5 5 5 4 4 3 3 4 4 4 4 4 4 4
11 7 6 8 5 5 5 4 4 5 3 2 3 5 3 2 3 4 8 7 6 5 7 6 3 2 2 4 3 3 2 4 5 4 2 1 2 3 3 3 3 4 5 5 4 5 4 5 5 4 3 4 4 4
7 3 5 5 5 6 5 3 4 4 4 3 4 2 4 4 5 5 5 6 7 5 4 2 2 4 4 3 3 4 4 3 2 3 3 3 1 3 3 3 3 3 3 2 3 4 4 3 4 4 4 3 3 4
2 6 4 5 5 5 5 4 5 4 4 3 3 3 3 3 3 4 2 7 5 3 2 2 0 1 7 6 3 4 6 8 7 6 7 5 3 3 3 2 4 3 3 2 3 3 3 3 4 4 3 2 4 4
5 5 5 5 7 6 1 1 4 3 4 3 3 4 3 3 3 2 5 3 3 1 1 2 2 2 6 3 6 7 6 7 5 5 5 4 4 3 5 4 3 4 4 3 3 3 2 4 4 4 3 3 3 3
7 6 5 4 5 2 2 3 3 3 4 3 4 3 2 2 2 5 4 2 2 1 2 2 2 4 4 8 6 5 4 4 6 5 3 3 4 3 4 4 4 3 2 3 3 3 2 2 4 3 3 3 2 3
9 8 6 5 3 6 5 3 3 4 3 3 5 2 1 3 4 4 3 2 1 1 1 6 4 3 4 1 1 2 5 3 5 5 4 3 2 3 4 4 5 5 2 4 2 3 2 3 4 4 3 3 5 4
8 5 4 1 2 5 4 4 3 4 4 3 2 1 3 5 5 3 2 4 2 1 2 4 6 5 4 2 2 1 2 2 5 5 2 3 3 3 3 3 2 3 4 1 4 4 3 2 3 5 4 4 4 5
5 3 3 3 1 4 4 4 4 5 4 4 3 3 5 5 3 2 3 1 3 1 1 3 6 6 6 4 3 2 3 4 4 5 3 3 3 3 3 4 3 2 2 2 3 5 5 4 3 3 3 0 1 4
2 4 4 5 5 4 4 4 3 3 2 0 5 4 6 7 5 3 3 3 5 6 6 6 5 5 5 3 2 2 3 3 5 5 4 4 3 3 3 3 2 3 2 3 3 4 4 5 5 4 4 4 3 3
3 1 5 6 6 5 4 2 2 1 1 3 5 3 2 2 2 4 4 5 5 7 7 7 2 4 6 6 5 4 3 3 5 3 2 2 2 4 2 2 3 2 2 3 3 4 6 4 5 5 5 4 3 2
1 2 5 4 5 4 4 2 1 3 3 3 4 8 7 5 4 2 5 4 4 4 4 5 4 4 4 4 1 4 3 3 2 5 5 4 4 2 2 3 3 3 2 3 3 3 6 5 4 4 3 3 3 3
3 4 5 4 4 2 2 1 4 5 4 6 4 5 4 4 3 4 3 2 5 5 5 5 4 1 5 4 3 4 1 4 3 4 4 4 3 2 1 1 0 2 4 4 3 2 2 3 3 4 5 5 4 3
4 3 6 5 2 2 3 2 3 4 1 4 1 3 4 5 2 3 2 3 3 4 3 5 6 2 2 2 2 2 5 4 3 3 5 4 3 1 2 2 3 4 4 4 3 3 3 4 4 4 3 3 2 3
4 4 5 5 3 1 4 5 4 3 4 2 0 3 2 5 5 5 2 1 4 5 6 5 4 5 6 6 6 4 4 4 5 5 6 5 5 4 3 3 3 4 5 4 3 3 4 4 3 3 3 4 2 2
Wind_Direction
270 273 277 280 284 288 288 286 288 283 277 274 275 232 216 211 205 176 132 185 165 229 257 258 236 240 309 177 176 300 353 333 43 196 194 249 206 267 315 37 121 188 142 164 154 190 250 350 239 78 158 214 28 5
268 273 278 274 282 282 284 282 283 276 275 273 266 256 205 203 196 168 156 172 196 230 297 305 269 260 223 193 149 202 283 89 211 211 278 323 315 342 89 306 186 213 142 174 176 192 93 29 76 65 97 90 50 35
267 274 274 276 280 283 280 279 277 271 270 266 256 248 199 197 196 182 142 150 168 213 272 240 245 246 222 209 189 200 219 272 254 181 246 256 266 128 338 269 284 68 6 3 105 151 106 70 43 50 44 65 69 60
270 273 272 278 282 280 278 275 269 266 264 258 241 235 198 193 190 178 173 154 173 160 251 275 236 241 223 205 195 181 207 254 194 260 227 156 226 93 210 335 348 357 6 357 83 37 86 48 44 38 37 32 83 66
270 270 275 280 281 280 276 270 264 257 252 249 235 219 201 191 183 176 173 178 187 194 242 279 301 268 205 182 188 181 194 225 268 142 50 240 252 329 352 140 55 1 359 19 81 302 60 68 39 41 36 70 51 57
269 273 278 282 281 276 276 262 255 254 254 239 229 213 199 187 168 147 173 208 197 145 306 307 274 280 189 166 182 194 196 178 175 165 219 272 303 99 332 73 69 35 57 37 48 251 109 107 56 43 59 66 61 59
268 277 282 283 278 280 273 268 269 261 251 230 208 202 192 174 159 167 185 190 169 138 237 276 290 273 214 123 135 128 141 147 124 167 215 249 216 27 4 94 52 31 44 29 8 347 68 51 68 45 51 67 72 73
275 282 285 281 282 276 278 282 276 257 235 202 189 184 180 165 137 223 278 146 146 126 203 246 268 326 14 131 135 152 137 120 158 177 216 217 113 71 84 95 54 30 37 26 20 28 42 63 79 63 51 53 60 57
280 285 279 286 272 287 303 304 296 223 170 165 164 160 111 93 119 164 185 142 103 150 185 210 229 235 343 106 126 86 109 145 261 189 215 142 44 56 74 94 72 52 43 359 21 34 29 36 43 60 60 51 64 52
279 274 280 287 301 314 330 39 70 109 123 116 92 84 124 155 114 112 46 90 132 267 253 245 198 206 229 200 123 125 129 158 191 191 92 72 77 84 84 84 74 61 46 17 23 28 17 23 59 63 61 52 56 55
274 269 282 286 291 308 343 38 74 93 73 65 99 108 104 91 77 120 134 155 135 202 210 230 162 159 148 123 115 155 151 157 182 207 168 100 106 102 97 78 63 63 64 57 68 52 32 16 34 63 59 59 62 62
241 275 289 273 226 250 301 1 35 48 31 110 97 84 80 115 126 128 127 150 178 206 202 150 170 142 61 119 162 158 152 172 184 146 92 96 91 101 100 81 68 66 70 64 55 51 35 41 45 63 62 64 68 76
259 284 53 39 109 159 181 86 118 127 134 56 52 61 49 2 71 117 160 171 135 8 25 50 79 120 58 13 120 135 140 183 146 52 67 65 110 91 105 101 78 69 68 65 62 60 59 57 48 61 67 55 71 66
169 95 67 55 80 137 160 144 147 1 60 68 78 54 77 22 49 11 24 80 24 20 13 23 75 96 88 80 323 86 14 119 104 114 185 86 98 97 92 84 83 69 68 73 57 53 53 53 53 50 49 53 76 73
141 108 77 56 91 110 107 94 74 58 60 62 52 67 70 58 26 331 326 69 6 338 355 48 46 53 21 67 13 78 41 63 38 143 90 105 95 95 96 97 91 93 72 69 55 67 51 53 65 62 56 63 69 71
163 110 53 351 61 129 109 66 42 76 63 60 39 52 105 66 355 10 6 13 351 343 337 1 109 60 19 79 50 20 47 114 217 97 97 106 91 85 91 98 101 103 92 81 73 79 74 59 67 68 61 58 63 68
155 132 177 44 50 96 93 83 55 49 62 52 29 356 46 90 73 291 335 307 283 286 62 60 60 49 65 55 50 20 65 123 106 101 86 93 114 114 111 102 106 110 108 112 110 107 105 94 84 84 78 64 70 66
91 132 100 42 25 62 57 46 78 68 64 37 65 352 28 38 346 5 340 343 13 54 39 58 39 48 52 58 55 78 70 82 72 82 93 101 99 95 110 116 114 116 113 105 116 110 109 111 109 109 110 103 91 75
139 124 107 43 88 95 72 40 62 88 81 94 57 20 63 59 30 22 17 2 43 42 74 54 58 45 42 64 101 108 107 106 116 85 79 77 102 112 108 105 122 127 130 135 153 161 166 164 156 147 134 122 115 119
112 99 74 50 53 83 80 51 72 82 88 89 42 25 49 45 352 20 29 27 47 58 49 43 45 5 37 53 43 81 122 123 121 105 76 65 86 98 120 124 117 117 113 106 93 90 82 70 57 70 102 112 115 114
78 16 39 48 43 61 92 99 69 103 133 101 157 107 104 66 43 25 29 7 51 37 72 52 43 56 39 34 28 62 66 100 116 133 147 109 34 88 88 126 133 87 98 84 96 89 80 90 94 89 87 79 82 106
20 49 64 32 74 58 70 22 113 138 91 121 162 94 85 62 36 26 51 35 59 10 59 121 207 70 67 49 2 30 74 74 70 71 60 62 56 47 49 43 85 80 80 84 96 99 104 101 102 107 105 98 87 100
39 46 43 52 69 60 183 63 87 121 101 149 77 65 38 56 84 83 70 62 76 344 113 109 107 72 78 28 53 42 43 75 72 76 80 77 77 62 61 55 68 95 90 72 85 87 75 108 119 114 102 82 100 69
31 54 59 76 75 130 39 25 61 72 71 69 69 70 41 123 105 62 71 63 249 162 78 107 91 90 61 58 54 38 10 71 77 48 22 90 91 68 78 67 50 35 75 117 101 92 78 89 140 138 131 121 110 125
71 341 72 8 357 75 70 36 36 68 90 81 82 25 275 84 77 79 135 150 151 208 182 171 161 91 118 119 38 29 17 49 96 82 8 32 92 76 74 66 52 27 36 92 77 88 46 64 65 86 96 124 135 140
70 299 82 175 312 102 155 103 124 129 103 75 158 188 59 78 72 105 140 167 160 110 137 133 129 110 80 66 105 40 319 329 107 90 28 23 39 130 160 130 76 353 356 87 125 122 121 117 107 108 97 91 120 129
70 321 328 9 345 75 60 55 58 90 100 135 187 83 84 80 154 204 118 115 119 214 124 109 121 120 126 121 99 42 28 54 88 105 104 64 44 26 106 125 130 246 315 48 93 144 151 156 149 160 148 17 163 146
129 43 92 311 53 23 100 57 73 123 192 133 74 62 121 163 169 167 141 122 120 102 85 74 81 100 104 93 92 87 49 65 81 87 77 43 39 39 63 61 64 107 69 76 94 83 104 145 155 158 164 170 200 210
48 352 77 35 40 40 45 112 190 302 289 95 108 120 128 73 166 113 133 129 114 109 110 109 37 85 81 68 48 40 45 110 135 140 182 194 355 314 355 42 22 36 93 67 62 121 123 118 126 130 148 160 204 150
290 84 85 62 66 28 341 113 220 281 21 105 104 104 79 44 23 44 108 101 112 136 163 146 147 120 139 118 96 18 359 42 103 140 146 173 202 239 76 72 46 8 41 81 52 2 26 36 23 27 40 34 38 41
107 76 73 64 84 9 153 126 76 62 47 50 23 81 106 118 21 14 69 106 123 116 104 94 68 56 136 151 138 118 6 323 16 78 106 113 119 111 123 85 32 88 84 80 79 88 69 42 42 60 69 83 79 95
44 95 120 103 121 264 12 47 93 94 33 64 338 46 20 62 85 293 301 98 90 104 148 131 125 187 197 129 115 120 115 132 124 109 101 98 90 78 78 59 58 62 62 57 76 92 87 100 84 91 103 95 85 89
56 43 63 91 70 324 283 84 46 66 32 66 8 149 150 136 168 221 288 107 156 162 157 155 143 134 142 134 135 130 116 131 136 108 99 97 98 81 65 52 56 66 69 61 58 85 96 96 75 72 100 113 89 60